Flag Weather past 2 weeks in Frankenthal (Pfalz), Rhineland-Palatinate, Germany

Now
50 °F

Clear.


Feels Like: 50 °F
Forecast: 46 / 63 °F
Wind: No wind

Location: Baden Wurttemberg - Neuostheim

Current Time: Oct 31, 2014 at 10:46:34 PM

Latest Report: Oct 31, 2014 at 9:20 PM


Visibility: 4 mi

Pressure: 30.24 "Hg

Humidity: 100%

Dew point: 50 °F

Location of Frankenthal (Pfalz)Location

Historic Weather in Frankenthal (Pfalz) — Graph

°F

Frankenthal (Pfalz) temperature yesterday

Maximum temperature yesterday: 59 °F (at 1:20 PM)
Minimum temperature yesterday: 50 °F (at 5:20 AM)
Average temperature yesterday: 55 °F

Past Weeks' High & Low Weather Summary

 TemperatureHumidityPressure
High75 °F (Oct 19, 4:20 PM)100% (Oct 17, 5:50 AM)30.33 "Hg (Oct 17, 5:50 AM)
Low37 °F (Oct 24, 6:20 AM)57% (Oct 18, 4:20 PM)29.62 "Hg (Oct 21, 5:50 PM)
Average55 °F80%30.14 "Hg
* Reported Oct 17 5:50 AM — Oct 31 9:20 PM, Frankenthal (Pfalz), Weather by CustomWeather, © 2014

Note: Actual official high and low records may vary slightly from our data, if they occured in-between our weather recording intervals... More about our weather records

Advertising

Frankenthal (Pfalz) weather history for previous 24 hours

 ConditionsComfort  
Time TempWeatherWind HumidityBarometerVisibility
9:20 PM
Oct 31
50 °FClear.No wind100%30.24 "Hg4 mi
8:50 PM50 °FClear.1 mph100%30.24 "Hg4 mi
8:20 PM50 °FClear.No wind100%30.24 "Hg4 mi
7:50 PM50 °FClear.1 mph100%30.24 "Hg4 mi
7:20 PM52 °FClear.1 mph100%30.27 "Hg10 mi
6:20 PM54 °FClear.2 mph94%30.27 "Hg4 mi
5:50 PM55 °FClear.2 mph94%30.24 "Hg4 mi
5:20 PM55 °FClear.1 mph94%30.24 "Hg10 mi
4:50 PM57 °FSunny.3 mph88%30.24 "Hg10 mi
4:20 PM59 °FSunny.1 mph82%30.27 "Hg10 mi
3:50 PM59 °FSunny.2 mph82%30.27 "Hg10 mi
3:20 PM59 °FSunny.3 mph82%30.27 "Hg10 mi
2:50 PM61 °FSunny.3 mph77%30.27 "Hg10 mi
2:20 PM61 °FSunny.3 mph72%30.27 "Hg10 mi
1:50 PM61 °FSunny.3 mph72%30.27 "Hg10 mi
1:20 PM61 °FSunny.3 mph68%30.30 "Hg10 mi
12:50 PM61 °FClear.3 mph72%30.30 "Hg6 mi
12:20 PM59 °FClear.3 mph72%30.30 "Hg6 mi
11:50 AM57 °FClear.2 mph82%30.30 "Hg6 mi
11:20 AM57 °FClear.3 mph88%30.30 "Hg4 mi
10:50 AM55 °FClear.2 mph100%30.30 "Hg4 mi
10:20 AM54 °FFog.1 mph100%30.30 "Hg3 mi
9:50 AM52 °FFog.2 mph100%30.30 "Hg3 mi
9:20 AM50 °FFog.2 mph100%30.30 "Hg2 mi
8:50 AM48 °FFog.2 mph100%30.30 "Hg1 mi
8:20 AM48 °FFog.1 mph100%30.30 "Hg1 mi
7:50 AM48 °FFog.3 mph100%30.27 "Hg1 mi
7:20 AM46 °FFog.1 mph100%30.27 "Hg0 mi
6:50 AM46 °FFog.1 mph100%30.27 "Hg0 mi
6:20 AM46 °FFog.2 mph100%30.27 "Hg1 mi
5:50 AM48 °FFog.2 mph100%30.27 "Hg2 mi
5:20 AM46 °FFog.3 mph100%30.30 "Hg2 mi
3:50 AM48 °FFog.1 mph100%30.27 "Hg1 mi
3:20 AM50 °FFog.1 mph100%30.27 "Hg2 mi
Weather by CustomWeather, © 2014

See weather overviewHow to use our weather pages